• Join FlightAware (Why Join?)
  • Login
  • US Flag 
02:04AM EST


 

Airport Tracker/Info


-or-


 

Live Flight TrackerFlight Track Log ✈ CHQ4986 ✈ 13-Jan-2014 ✈ KMSN - KORD

Flight Track Log - Related Links

Times and Time Zones

All times are in EST time to prevent confusion due to time zone crossing. See the CHQ4986 flight status page for this flight to view local times or setup timezone preferences in your user account.

Time Position Orientation Groundspeed Altitude Reporting Facility
EST Latitude Longitude Course Direction KTS MPH feet Rate Location/Type
02:26PM 43.1389 -89.2342 151° Southeast 239 275 5,900  Level Chicago Center
02:27PM 43.0672 -89.2178 171° South 253 291 8,100 2,244 Climbing Chicago Center
02:28PM 42.9903 -89.2019 171° South 274 315 10,500 1,403 Climbing Chicago Center
02:29PM 42.8878 -89.1792 171° South 313 360 11,000 242 Climbing Chicago Center
02:30PM 42.7886 -89.1575 171° South 357 411 11,000 -390 Level Chicago Center
02:31PM 42.8136 -88.9277 105° East  Level Estimated
02:31PM 42.6908 -89.1344 170° South 358 412 10,200  Level Chicago Center
02:32PM 42.5969 -89.1128 170° South 347 399 10,000 -97 Descending Chicago Center
02:33PM 42.5292 -89.0142 133° Southeast 365 420 10,000  Level Chicago Center
02:34PM 42.4903 -88.8825 112° Southeast 376 433 10,000  Level Chicago Center
02:35PM 42.4442 -88.7281 112° Southeast 372 428 10,000  Level Chicago Center
02:36PM 42.4050 -88.5994 112° Southeast 372 428 10,000 -49 Level Chicago Center
02:38PM 42.3650 -88.4728 113° Southeast 370 426 9,900 -48 Descending Chicago Center
02:39PM 42.3125 -88.3603 122° Southeast 376 433 9,900 -629 Level Chicago Center
02:40PM 42.2533 -88.2522 126° Southeast 304 350 8,600 -1,355 Descending Chicago Center
02:41PM 42.2042 -88.1631 127° Southeast 297 342 7,100 -823 Descending Chicago Center
02:42PM 42.1456 -88.0900 137° Southeast 292 336 6,900  Descending Chicago Center
02:42PM 42.1167 -88.0500 134° Southeast 291 335 7,100 122 Climbing Chicago TRACON
02:43PM 42.1000 -87.9333 101° East 304 350 7,100  Level Chicago TRACON
02:44PM 42.0833 -87.8500 105° East 241 277 7,100 -397 Level Chicago TRACON
02:45PM 42.0833 -87.7500 90° East 230 265 6,300 -1,143 Descending Chicago TRACON
02:46PM 42.0833 -87.6667 90° East 227 261 4,700 -1,579 Descending Chicago TRACON
02:47PM 42.0500 -87.6333 143° Southeast 197 227 3,300 -889 Descending Chicago TRACON
02:48PM 42.0167 -87.6667 217° Southwest 159 183 3,100 -100 Descending Chicago TRACON
02:49PM 42.0000 -87.7333 251° West 160 184 3,100 -381 Level Chicago TRACON
02:50PM 42.0000 -87.8000 270° West 158 182 2,300 -762 Descending Chicago TRACON
02:51PM 42.0000 -87.8500 270° West 132 152 1,500 -700 Descending Chicago TRACON
02:52PM 42.0000 -87.8833 270° West 126 145 900 -667 Descending Chicago TRACON
02:54PM 41.9793 -87.9074 180° South  Level Estimated